Location: Bellflower
(33.8817°N, 118.1170°W)
Time: 13:08:57
(UTC+00:00)

PAYLOAD B - Pass Details

Date: 23 November 2020
Orbit: 849 x 871 km, 99.1° (Epoch: 21 January)

Event Time Altitude Azimuth Distance (km) Brightness Sun altitude
Rises 14:03:11 0° 11° (N) 3,430 7.3 -6.5°
Reaches altitude 10° 14:05:34 10° 10° (N) 2,488 6.5 -6.1°
Maximum altitude 14:11:05 75° 286° (WNW) 883 4.2 -5.0°
Drops below altitude 10° 14:16:32 10° 201° (SSW) 2,465 6.7 -3.9°
Sets 14:18:53 0° 200° (SSW) 3,397 7.4 -3.5°
